Theta_e
360 360 357 356 355 355 355 352 349 346 349 346 344 347 348 352 358 358 358 361 363 366 368 372 373 371 366 368 370 369 369 368 367 365 365 365 362 362 357 358 359 359
360 361 361 357 357 361 362 356 351 349 350 355 352 349 354 357 356 359 362 366 366 367 371 368 368 368 367 366 366 366 365 366 364 362 360 361 359 359 358 358 359 360
359 359 358 355 352 355 359 357 358 355 351 351 354 356 350 354 355 363 371 368 367 364 364 363 364 362 360 362 363 362 359 360 359 358 359 358 360 359 358 357 357 357
359 357 354 353 354 355 353 354 357 357 356 352 352 352 354 355 363 364 368 365 363 360 359 358 357 356 356 356 357 355 354 354 351 350 350 351 352 351 350 349 350 352
353 355 354 355 358 361 360 353 351 351 352 354 355 357 359 370 368 361 361 358 359 356 355 354 353 352 352 352 352 350 349 348 347 346 344 344 345 344 345 344 343 343
353 357 361 362 362 363 357 353 351 350 352 352 354 358 368 363 361 360 358 356 352 351 351 352 350 348 348 347 348 347 344 341 342 344 342 341 341 342 343 341 342 341
350 354 358 363 364 363 359 353 352 352 352 354 363 365 365 360 358 357 356 354 352 351 349 349 349 346 345 345 345 342 342 342 342 342 341 340 341 340 340 341 341 339
354 356 362 365 364 359 356 352 350 353 356 363 364 363 361 357 356 354 353 351 350 349 348 345 345 346 342 344 341 341 340 340 339 338 339 338 337 337 337 337 336 336
360 361 364 364 360 356 353 352 353 356 365 364 361 358 358 356 353 352 351 351 349 347 345 343 343 342 342 342 340 339 338 337 337 336 336 335 333 334 334 334 334 334
362 364 364 361 358 355 357 353 357 366 366 362 358 356 352 352 352 350 350 350 346 344 343 344 343 342 341 341 339 338 337 335 335 334 333 333 332 332 331 332 332 332
363 363 361 359 354 358 358 360 367 365 364 361 357 353 352 351 350 349 347 345 340 340 342 342 342 342 341 340 338 338 337 335 336 335 334 334 334 333 332 331 331 330
362 362 361 361 360 365 364 368 367 364 360 358 357 354 353 350 347 344 342 340 340 340 341 343 343 342 340 339 337 338 336 336 335 335 333 333 331 331 331 331 330 331
361 363 363 364 369 369 370 368 365 362 359 356 355 353 350 347 345 342 341 340 342 343 342 342 341 340 340 339 338 338 337 335 334 333 333 332 332 331 331 332 331 330
363 364 366 372 373 371 367 364 361 359 356 355 353 350 347 346 343 341 341 342 342 343 342 342 341 339 339 339 339 337 336 334 333 333 332 332 331 331 332 332 331 332
364 367 375 374 370 367 363 360 357 356 353 352 350 347 343 342 342 340 341 341 342 341 341 339 337 336 335 335 336 336 336 334 334 332 332 331 331 331 332 332 331 331
370 374 372 369 366 363 360 357 354 352 351 349 346 344 344 344 343 343 342 341 340 340 339 336 335 334 332 330 331 335 336 333 334 333 333 332 332 331 332 333 331 332
372 371 369 365 363 360 357 354 352 350 349 346 344 343 342 343 342 341 341 341 340 339 336 334 333 331 328 326 328 330 336 334 332 334 334 333 333 332 333 332 331 332
368 368 365 362 359 357 354 353 351 349 347 345 342 341 342 342 341 340 340 340 339 338 336 333 332 327 326 326 328 328 332 336 333 333 333 334 334 334 333 331 331 331
368 365 362 359 357 355 353 351 350 347 345 343 341 341 341 341 340 339 339 339 338 337 335 333 331 327 326 326 327 328 330 336 334 334 334 333 334 334 334 333 333 332
365 362 359 357 355 353 351 350 348 346 344 343 341 341 340 338 338 339 338 338 338 336 335 333 333 327 324 325 327 327 330 335 335 334 334 334 335 335 335 334 332 332
363 360 357 355 353 352 350 349 347 345 342 341 341 340 339 338 338 337 338 338 338 336 333 331 330 322 323 324 325 325 329 336 336 335 334 335 335 336 336 334 333 333
361 359 356 354 352 351 349 347 345 343 341 341 340 340 340 339 338 338 337 338 338 337 333 331 328 321 321 322 322 324 328 335 335 336 335 335 335 335 335 335 334 334
360 357 354 352 351 350 348 346 343 342 341 342 341 340 338 337 338 337 338 338 338 337 335 333 331 324 319 320 320 321 333 335 337 336 336 334 334 335 334 334 334 336
358 356 353 351 351 349 347 345 343 343 342 342 339 338 337 338 339 337 338 338 338 337 336 334 333 327 317 318 318 320 333 336 337 336 335 335 334 336 335 333 334 332
357 355 353 351 350 348 346 343 342 341 341 341 340 340 338 337 336 336 336 338 339 337 333 335 335 331 318 316 317 319 333 338 336 334 334 334 334 333 335 333 334 333
355 354 353 351 349 347 346 343 343 341 341 341 340 338 335 334 334 334 334 335 337 337 336 336 335 334 327 315 316 319 323 344 337 335 332 333 333 331 332 333 333 334
Wind_Speed
8 7 7 7 7 6 6 6 5 5 4 5 6 4 4 4 5 6 7 6 6 6 5 5 5 6 7 6 6 6 6 6 6 6 7 8 9 10 11 12 11 9
9 7 6 6 5 5 6 6 6 6 4 3 4 4 3 4 6 5 5 6 6 5 5 5 5 5 5 5 5 5 5 5 7 6 10 12 12 11 13 14 12 9
9 9 9 9 8 8 7 6 6 6 6 5 5 5 6 5 4 5 4 5 4 5 5 4 4 4 5 5 5 5 6 6 6 8 8 10 8 9 10 10 9 10
10 10 9 9 8 7 6 5 5 5 5 5 5 5 4 5 5 3 4 4 4 4 4 4 4 4 5 6 6 5 6 5 5 7 8 7 8 9 9 9 8 8
10 9 9 7 5 6 6 7 7 5 5 4 5 5 4 1 3 3 2 3 3 2 3 3 3 4 5 6 6 6 6 7 7 8 8 8 8 8 8 8 9 9
8 7 7 6 6 6 6 7 6 6 6 6 6 3 2 2 2 3 3 3 3 4 4 5 6 6 6 6 6 6 7 7 8 9 8 8 8 8 7 8 9 9
8 8 8 6 7 7 7 7 6 6 5 4 1 1 3 3 4 5 4 4 4 4 4 5 5 6 6 6 6 7 6 6 7 8 8 7 8 9 8 8 8 9
6 5 6 6 7 7 8 7 6 5 3 2 3 4 3 5 5 4 5 4 4 5 5 5 5 5 6 6 7 7 7 6 7 8 8 8 8 8 9 8 9 9
6 6 6 7 7 6 7 6 5 3 3 4 5 5 5 5 5 6 6 5 5 5 5 5 6 6 6 6 6 7 7 7 7 8 8 9 9 10 10 9 9 9
8 7 7 7 7 6 5 6 3 5 5 6 6 5 6 6 6 6 5 4 4 5 5 5 6 6 6 6 6 7 8 8 8 9 9 9 9 10 10 9 9 9
9 8 8 8 7 5 6 4 6 7 6 7 6 7 7 6 6 5 5 4 4 5 6 6 6 6 6 6 6 7 7 8 8 8 8 9 9 8 9 9 9 9
8 8 8 7 6 6 6 7 7 8 8 7 8 8 7 6 5 4 5 6 5 5 6 6 6 6 6 6 7 7 7 7 8 8 9 9 9 9 8 8 8 8
8 8 7 7 7 7 7 7 8 9 9 9 8 8 7 6 6 6 5 6 6 6 7 7 6 6 6 6 6 6 7 8 8 8 9 8 8 8 8 8 8 8
8 8 8 8 7 8 8 8 9 9 9 9 8 8 8 7 6 6 6 6 6 6 6 6 6 6 6 6 6 7 7 7 8 8 8 8 8 8 8 7 7 7
8 8 8 9 9 9 9 9 10 10 9 9 8 8 6 7 7 7 7 7 7 7 6 6 6 6 6 6 6 7 7 7 7 8 8 8 7 7 7 7 7 6
9 9 9 9 9 9 10 10 10 10 9 9 8 8 7 7 7 7 7 7 7 7 6 6 6 5 7 9 7 6 6 6 6 8 7 6 6 8 8 8 7 6
10 10 10 10 10 10 10 11 10 9 9 9 8 8 8 7 7 7 7 7 7 6 7 6 6 5 9 8 8 10 7 6 6 6 6 7 7 7 8 9 7 6
10 11 11 11 11 11 11 11 10 10 10 9 8 8 8 8 8 8 7 7 6 6 7 7 6 7 7 7 7 8 8 5 6 7 7 8 8 8 8 8 7 5
11 12 12 11 11 12 11 11 10 10 10 9 9 8 8 8 8 8 7 7 7 7 7 7 7 6 6 7 7 8 10 9 7 6 7 8 8 8 8 8 6 5
12 12 12 12 12 12 12 11 11 10 9 9 9 9 8 8 8 8 7 7 7 7 7 7 6 5 7 7 7 8 9 9 7 6 7 8 8 8 8 8 7 6
13 13 13 13 13 12 12 11 10 10 10 9 8 9 9 9 9 8 7 7 7 7 7 7 4 5 5 7 7 9 10 11 7 6 7 7 8 9 9 8 7 5
14 13 13 13 13 13 12 11 11 10 10 9 9 8 8 8 7 7 7 8 7 7 7 7 4 4 5 6 8 8 12 3 6 6 7 7 8 11 10 8 7 5
14 14 14 14 13 13 12 12 11 11 9 8 9 9 9 8 8 7 7 7 7 7 6 5 4 3 4 6 7 9 8 6 5 7 7 8 9 10 10 9 8 9
14 14 15 14 14 13 13 11 10 9 9 9 9 10 9 8 8 7 7 7 7 6 5 5 3 3 6 7 8 8 8 5 5 7 8 8 9 9 8 8 8 13
13 14 14 14 14 13 12 12 11 10 9 8 9 8 9 8 8 7 7 6 5 5 4 3 3 4 6 8 8 9 7 7 7 8 7 8 8 8 8 7 6 8
12 14 14 13 13 12 11 11 10 10 10 9 9 8 8 8 7 7 7 6 5 4 3 2 3 4 6 7 8 9 10 4 7 8 8 8 7 7 7 7 6 6
Wind_Direction
216 218 216 218 227 236 251 248 250 255 257 266 269 291 315 319 324 308 312 325 335 315 354 350 337 335 332 325 344 325 325 331 324 325 343 332 320 321 316 322 325 322
218 222 229 234 225 223 233 248 260 271 275 268 273 289 291 307 294 302 328 342 331 357 15 354 2 355 347 348 349 340 335 345 329 329 320 318 317 321 315 317 319 322
214 213 218 226 230 219 226 239 253 258 262 279 309 293 289 281 306 342 10 358 357 9 26 12 11 17 1 7 354 350 1 342 343 347 337 330 334 323 325 329 326 335
211 220 225 227 231 249 246 233 229 238 255 262 260 283 310 317 324 339 57 33 34 42 34 30 15 14 12 15 5 357 351 324 18 348 336 334 329 329 332 330 327 327
214 214 224 231 231 222 232 248 254 262 268 271 278 275 266 6 338 8 57 67 62 53 67 47 28 24 17 21 4 353 346 337 8 353 338 334 334 341 333 329 330 330
210 218 213 213 214 221 231 241 242 247 252 258 259 274 63 51 48 49 44 45 67 59 45 31 16 18 8 18 4 6 350 351 355 348 344 338 344 339 338 337 335 335
211 199 204 199 207 215 234 248 257 260 252 268 42 72 83 83 87 89 87 77 60 54 51 45 32 11 13 12 13 4 360 356 358 354 349 346 343 342 346 339 340 337
226 198 193 199 208 222 231 242 242 231 234 162 111 91 97 99 98 98 89 83 77 60 45 43 26 31 17 26 15 11 9 7 5 354 351 347 343 341 338 339 337 337
198 199 184 196 217 228 233 232 219 193 141 142 119 115 107 110 110 99 91 83 75 62 44 39 33 26 35 30 27 19 13 4 358 350 347 343 345 343 343 342 340 335
191 191 196 207 217 226 221 226 171 129 113 111 119 122 115 101 97 96 93 91 81 69 57 49 44 38 34 32 27 20 8 356 357 348 351 348 346 347 345 343 341 339
190 193 200 209 215 197 205 158 118 112 115 120 122 116 114 113 107 108 102 84 65 65 63 54 50 43 32 30 21 13 2 359 358 353 351 348 352 351 350 347 345 345
187 191 196 195 199 171 163 124 119 117 118 113 112 112 110 106 104 91 80 73 64 63 68 63 52 41 35 26 19 9 2 7 2 355 359 355 359 355 353 354 347 345
183 181 181 181 170 155 131 123 120 121 119 118 116 112 110 104 100 92 78 80 76 68 64 59 52 39 31 19 15 11 6 8 4 6 5 3 8 2 359 355 352 350
176 172 170 161 144 129 124 122 120 118 116 114 114 112 108 108 104 99 97 86 80 78 71 63 50 42 27 10 7 11 8 11 15 12 8 11 7 2 359 353 354 355
167 163 151 136 130 126 123 123 120 117 116 115 113 113 110 106 100 96 95 92 85 80 74 59 53 43 28 9 358 11 20 20 19 18 20 16 3 4 3 359 4 349
157 145 138 133 130 128 126 125 123 120 116 112 108 105 106 105 105 103 99 98 93 83 75 64 57 52 22 12 1 352 6 27 23 27 27 19 8 2 4 9 22 9
146 140 136 134 132 129 129 127 124 122 117 114 113 113 112 112 113 110 104 96 92 89 80 72 60 43 12 9 359 346 337 31 33 37 30 23 20 11 7 16 23 23
143 139 136 133 133 131 131 128 126 123 122 121 122 122 119 119 115 111 108 103 96 91 81 75 70 39 1 6 0 340 332 333 41 33 29 28 19 17 16 17 18 17
141 139 136 137 136 133 132 130 129 127 126 126 125 123 123 122 120 116 111 105 100 96 89 81 81 44 356 3 352 331 324 315 45 30 33 31 20 21 20 17 18 9
143 140 139 138 137 135 134 133 132 131 128 125 126 129 129 127 121 115 114 110 103 98 91 90 90 41 346 353 342 326 310 303 45 34 38 32 24 23 23 25 24 18
144 142 139 139 139 137 136 135 132 128 130 132 135 135 135 132 128 124 121 119 119 112 106 102 84 15 340 341 339 318 310 296 51 40 45 41 31 30 29 31 35 31
145 142 140 142 141 140 138 135 134 135 137 138 136 135 132 131 130 129 126 122 118 117 114 107 90 24 343 338 333 317 303 347 56 56 53 51 43 42 41 39 38 33
146 142 143 144 143 141 139 138 138 140 139 144 140 140 141 139 140 136 131 127 122 120 121 113 102 31 356 342 332 325 311 70 65 65 63 60 57 54 52 50 34 22
146 144 144 145 145 143 141 139 139 140 144 150 146 145 144 143 141 135 131 127 123 121 120 119 99 46 21 357 339 343 313 61 82 78 77 73 71 67 65 67 46 25
146 145 144 144 143 142 141 141 144 145 146 148 145 143 140 144 141 133 127 117 103 95 72 105 106 81 43 7 349 345 339 75 71 86 84 81 84 74 72 67 68 52
147 144 143 142 140 138 139 139 140 142 148 148 146 145 147 141 139 128 123 111 99 95 90 105 104 68 43 9 2 353 348 2 85 85 82 81 71 77 72 61 56 59